Location: Stockholm
(59.3330°N, 18.0500°E)
Time: 12:51:50
(UTC+01:00)

Envisat - Pass Details

Date: 03 December 2022
Orbit: 763 x 765 km, 98.2° (Epoch: 29 January)

Event Time Altitude Azimuth Distance (km) Brightness Sun altitude
Rises 06:54:39 0° 16° (NNE) 3,250 6.1 -9.6°
Reaches altitude 10° 06:57:51 10° 355° (N) 2,320 5.2 -9.3°
Maximum altitude 07:00:45 16° 320° (NW) 1,956 4.5 -9.0°
Drops below altitude 10° 07:03:40 10° 285° (WNW) 2,313 4.9 -8.6°
Enters shadow 07:03:49 10° 283° (WNW) 2,348 4.9 -8.6°
